Regional Weather Roundup
Issued by NWS

Home | Current Version | Previous Version | Text Only | Print | Product List | Glossary Off
Versions: 1 2 3 4 5 6 7 8 9 10 11 12 13 14 15 16 17 18 19 20 21 22 23 24 25 26 27 28 29 30 31 32 33 34 35 36 37 38 39 40 41 42 43 44 45 46 47 48 49 50

000
ASUS43 KLSX 010459
RWRMO

WEATHER SUMMARY FOR MISSOURI
NATIONAL WEATHER SERVICE SPRINGFIELD MO
1100 PM CST SAT JAN 31 2015

NOTE: "FAIR" INDICATES FEW OR NO CLOUDS BELOW 12,000 FEET WITH NO
       SIGNIFICANT WEATHER AND/OR OBSTRUCTIONS TO VISIBILITY.
       CURRENT SKY AND/OR WEATHER CONDITIONS ARE NOT AVAILABLE FOR
       CHILLICOTHE AND FARMINGTON.

MOZ001>031-035>038-043-044-053-054-010600-
...NORTHERN AND WESTERN MISSOURI...

CITY           SKY/WX    TMP DP  RH WIND       PRES   REMARKS
KANSAS CTY INT LGT SNOW  33  33 100 SE12      29.88F FOG     WCI  24
KANSAS C DTWN  LGT SNOW  34  33  96 E5        29.89F FOG     WCI  30
LEE`S SUMMIT   LGT SNOW  33  32  96 E8        29.89F FOG     WCI  26
ST JOSEPH      LGT SNOW  32  32 100 E5        29.89F FOG     WCI  27
CHILLICOTHE      N/A     33  32  96 SE6       29.94F WCI  28
KIRKSVILLE     SNOW      33  33 100 SE14      29.96F VSB 1/2 WCI  23

$$
MOZ066>068-077>081-088>096-101>105-010600-
...SOUTHWEST MISSOURI...

CITY           SKY/WX    TMP DP  RH WIND       PRES   REMARKS
SPRINGFIELD    LGT RAIN  38  31  76 S22G29    29.88F WCI  27
JOPLIN         LGT RAIN  39  37  92 S10       29.89F FOG

$$
MOZ032>034-039>042-045>050-055>058-069>072-010600-
...CENTRAL MISSOURI...

CITY           SKY/WX    TMP DP  RH WIND       PRES   REMARKS
COLUMBIA       LGT RAIN  37  29  72 SE7       29.96F
JEFFERSON CITY LGT RAIN  37  28  70 E8        29.98F
ROLLA          LGT RAIN  36  26  67 SE15      29.93F WCI  27
SEDALIA        LGT RAIN  36  32  85 E8        29.93F WCI  30
OSAGE BEACH    CLOUDY    39  27  60 SE9       29.92F

$$
MOZ051-052-059>065-010600-
...EAST CENTRAL MISSOURI...

CITY           SKY/WX    TMP DP  RH WIND       PRES   REMARKS
ST LOUIS INTL  CLOUDY    41  25  53 SE13      30.06F
SPIRIT OF STL  CLOUDY    40  24  53 SE6       30.03F
ST CHARLES     CLOUDY    36  30  79 E10       30.06F WCI  28

$$
MOZ072>076-082>087-097>100-106>115-010600-
...SOUTH CENTRAL AND SOUTHEAST MISSOURI...

CITY           SKY/WX    TMP DP  RH WIND       PRES   REMARKS
CAPE GIRARDEAU CLOUDY    39  28  64 E5        30.10F
FARMINGTON     CLOUDY    37  25  60 SE10      30.06F
POPLAR BLUFF   CLOUDY    38  30  73 E3        30.07F
WEST PLAINS    CLOUDY    38  24  57 SE9G20    30.00F

$$



USA.gov is the U.S. government's official web portal to all federal, state and local government web resources and services.